Date String (YYYY-MM-DD hh:mm:ss) UTC,Instrument flags,absolute air pressure of the measurement (hPa),sample flow rate (lpm),inlet stack bypass flow (lpm),air temperature of the measurement (°C),ambient temperature measured by the external sensor (°C),aerosol sample conditioner tube jacket temperature (°C),OPC LED temperature (°C),internal box temperature (°C),relative humidity of the measurement (%),span deviation,mass concentration of particles derived from Lorenz-Mie calculation of OPC scattering (μg/m³),mass concentration of particles derived from Lorenz-Mie calculation of OPC scattering (μg/m³),mass concentration of particles derived from Lorenz-Mie calculation of OPC scattering (μg/m³)
DateTimeUTC,F1_M11,P_M11,Q1_M11,Q2_M11,T1_M11,T2_M11,T3_M11,T4_M11,T5_M11,U1_M11,ZSPAN_M11,X0_M11,X2_M11,X1_M11
2024-03-11 09:00:00,SystemResetWarning,0825.6,5.00,000.00,020.9,020.1,000.0,029.4,022.7,06.6,0000.0,0017.36,0005.19,0002.00
2024-03-11 09:01:00,SystemResetWarning,0825.6,5.00,000.00,020.9,020.1,000.0,029.4,022.7,06.7,0000.0,0017.36,0005.16,0001.99
2024-03-11 09:02:00,SystemResetWarning,0825.6,5.00,000.00,020.9,020.1,000.0,029.4,022.7,06.7,0000.0,0017.21,0005.11,0001.99
2024-03-11 09:03:00,SystemResetWarning,0825.5,5.00,000.00,020.9,020.1,000.0,029.4,022.7,06.7,0000.0,0017.32,0005.07,0001.98
2024-03-11 09:04:00,SystemResetWarning,0825.5,5.00,000.00,020.9,020.1,000.0,029.4,022.7,06.8,0000.0,0016.88,0005.00,0001.98
2024-03-11 09:05:00,SystemResetWarning,0825.6,5.01,000.00,020.9,020.1,000.0,029.4,022.7,06.9,0000.0,0017.36,0005.00,0001.97
2024-03-11 09:06:00,SystemResetWarning,0825.6,5.00,000.00,020.9,020.1,000.0,029.4,022.7,06.8,0000.0,0017.33,0004.94,0001.97
2024-03-11 09:07:00,SystemResetWarning,0825.5,5.00,000.00,020.9,020.1,000.0,029.4,022.7,06.8,0000.0,0017.58,0004.97,0001.96
2024-03-11 09:08:00,SystemResetWarning,0825.6,5.00,000.00,020.9,020.1,000.0,029.4,022.7,06.7,0000.0,0017.55,0004.93,0001.96
2024-03-11 09:09:00,SystemResetWarning,0825.5,5.00,000.00,020.9,020.1,000.0,029.4,022.7,06.7,0000.0,0016.86,0004.89,0001.97
2024-03-11 09:10:00,SystemResetWarning,0825.5,5.01,000.00,020.9,020.1,000.0,029.4,022.7,06.7,0000.0,0017.22,0004.95,0002.00
2024-03-11 09:11:00,SystemResetWarning,0825.4,5.00,000.00,020.9,020.1,000.0,029.4,022.7,06.6,0000.0,0017.74,0004.96,0002.01
2024-03-11 09:12:00,SystemResetWarning,0825.4,5.00,000.00,020.9,020.1,000.0,029.4,022.7,06.6,0000.0,0017.94,0004.96,0002.01
2024-03-11 09:13:00,SystemResetWarning,0825.4,5.00,000.00,020.9,020.1,000.0,029.4,022.7,06.6,0000.0,0017.65,0004.93,0002.03
2024-03-11 09:14:00,SystemResetWarning,0825.4,5.00,000.00,020.9,020.1,000.0,029.4,022.7,06.6,0000.0,0017.58,0004.91,0002.03
2024-03-11 09:15:00,SystemResetWarning,0825.4,4.99,000.00,020.9,020.1,000.0,029.4,022.7,06.6,0000.0,0017.78,0004.87,0002.04
2024-03-11 09:16:00,SystemResetWarning,0825.4,4.99,000.00,020.9,020.1,000.0,029.4,022.7,06.6,0000.0,0017.54,0004.88,0002.05
2024-03-11 09:17:00,SystemResetWarning,0825.5,4.99,000.00,020.9,020.1,000.0,029.4,022.7,06.6,0000.0,0017.05,0004.92,0002.07
2024-03-11 09:18:00,SystemResetWarning,0825.4,5.00,000.00,020.9,020.1,000.0,029.4,022.7,06.5,0000.0,0017.13,0004.95,0002.08
2024-03-11 09:19:00,SystemResetWarning,0825.4,5.00,000.00,020.9,020.1,000.0,029.4,022.7,06.6,0000.0,0016.78,0005.00,0002.09
2024-03-11 09:20:00,SystemResetWarning,0825.4,5.00,000.00,020.9,020.1,000.0,029.4,022.7,06.6,0000.0,0016.48,0005.04,0002.10
2024-03-11 09:21:00,SystemResetWarning,0825.4,5.00,000.00,020.9,020.1,000.0,029.4,022.7,06.6,0000.0,0016.69,0005.02,0002.10
2024-03-11 09:22:00,SystemResetWarning,0825.5,5.01,000.00,020.9,020.1,000.0,029.4,022.7,06.6,0000.0,0015.61,0004.97,0002.10
2024-03-11 09:23:00,SystemResetWarning,0825.5,5.00,000.00,020.9,020.1,000.0,029.4,022.7,06.6,0000.0,0014.92,0004.99,0002.12
2024-03-11 09:24:00,SystemResetWarning,0825.5,5.00,000.00,020.8,020.1,000.0,029.4,022.7,06.6,0000.0,0014.99,0004.98,0002.13
2024-03-11 09:25:00,SystemResetWarning,0825.4,5.00,000.00,020.8,020.1,000.0,029.4,022.7,06.6,0000.0,0015.21,0005.00,0002.13
2024-03-11 09:26:00,SystemResetWarning,0825.4,5.01,000.00,020.9,020.1,000.0,029.4,022.7,06.7,0000.0,0014.97,0005.07,0002.14
2024-03-11 09:27:00,SystemResetWarning,0825.4,5.00,000.00,020.8,020.1,000.0,029.4,022.6,06.6,0000.0,0015.20,0005.09,0002.13
2024-03-11 09:28:00,SystemResetWarning,0825.3,5.00,000.00,020.8,020.1,000.0,029.4,022.6,06.6,0000.0,0015.05,0005.03,0002.12
2024-03-11 09:29:00,SystemResetWarning,0825.3,5.00,000.00,020.8,020.1,000.0,029.4,022.6,06.6,0000.0,0014.79,0005.07,0002.12
2024-03-11 09:30:00,SystemResetWarning,0825.3,5.00,000.00,020.8,020.1,000.0,029.4,022.6,06.6,0000.0,0014.87,0005.12,0002.13
2024-03-11 09:31:00,SystemResetWarning,0825.3,4.99,000.00,020.8,020.1,000.0,029.4,022.6,06.6,0000.0,0014.45,0005.10,0002.15
2024-03-11 09:32:00,SystemResetWarning,0825.3,5.00,000.00,020.8,020.1,000.0,029.3,022.6,06.6,0000.0,0013.97,0005.12,0002.15
2024-03-11 09:33:00,SystemResetWarning,0825.3,5.00,000.00,020.8,020.1,000.0,029.4,022.6,06.6,0000.0,0015.30,0005.18,0002.14
2024-03-11 09:34:00,SystemResetWarning,0825.3,5.00,000.00,020.8,020.1,000.0,029.3,022.6,06.6,0000.0,0016.66,0005.25,0002.13
2024-03-11 09:35:00,SystemResetWarning,0825.3,5.00,000.00,020.8,020.1,000.0,029.4,022.6,06.6,0000.0,0016.79,0005.32,0002.14
2024-03-11 09:36:00,SystemResetWarning,0825.3,5.00,000.00,020.8,020.1,000.0,029.4,022.6,06.6,0000.0,0016.83,0005.38,0002.14
2024-03-11 09:37:00,SystemResetWarning,0825.3,5.00,000.00,020.8,020.0,000.0,029.3,022.6,06.6,0000.0,0016.93,0005.38,0002.14
2024-03-11 09:38:00,SystemResetWarning,0825.2,5.00,000.00,020.8,020.0,000.0,029.3,022.6,06.6,0000.0,0016.74,0005.31,0002.13
2024-03-11 09:39:00,SystemResetWarning,0825.2,5.00,000.00,020.8,020.0,000.0,029.3,022.6,06.7,0000.0,0017.13,0005.36,0002.13
2024-03-11 09:40:00,SystemResetWarning,0825.3,4.99,000.00,020.8,019.9,000.0,029.3,022.5,06.6,0000.0,0017.17,0005.30,0002.12
2024-03-11 09:41:00,SystemResetWarning,0825.3,5.00,000.00,020.8,019.9,000.0,029.3,022.6,06.7,0000.0,0018.30,0005.26,0002.12
2024-03-11 09:42:00,SystemResetWarning,0825.4,5.00,000.00,020.8,019.9,000.0,029.3,022.5,06.7,0000.0,0020.45,0005.29,0002.12
2024-03-11 09:43:00,SystemResetWarning,0825.4,5.00,000.00,020.8,019.9,000.0,029.3,022.5,06.7,0000.0,0020.79,0005.29,0002.09
2024-03-11 09:44:00,SystemResetWarning,0825.3,4.99,000.00,020.8,019.9,000.0,029.3,022.5,06.7,0000.0,0019.90,0005.31,0002.10
2024-03-11 09:45:00,SystemResetWarning,0825.2,5.00,000.00,020.7,019.8,000.0,029.3,022.5,06.8,0000.0,0019.24,0005.32,0002.10
2024-03-11 09:46:00,SystemResetWarning,0825.2,5.00,000.00,020.7,019.8,000.0,029.3,022.5,06.8,0000.0,0019.23,0005.32,0002.11
2024-03-11 09:47:00,SystemResetWarning,0825.1,5.00,000.00,020.7,019.8,000.0,029.3,022.5,06.7,0000.0,0020.01,0005.31,0002.10
2024-03-11 09:48:00,SystemResetWarning,0825.1,5.00,000.00,020.7,019.8,000.0,029.3,022.5,06.7,0000.0,0020.11,0005.34,0002.10
2024-03-11 09:49:00,SystemResetWarning,0825.1,5.00,000.00,020.7,019.9,000.0,029.3,022.5,06.7,0000.0,0019.82,0005.36,0002.12
2024-03-11 09:50:00,SystemResetWarning,0825.1,5.00,000.00,020.7,019.9,000.0,029.3,022.5,06.7,0000.0,0019.73,0005.32,0002.13
2024-03-11 09:51:00,SystemResetWarning,0825.1,5.01,000.00,020.7,019.9,000.0,029.3,022.5,06.8,0000.0,0019.82,0005.33,0002.14
2024-03-11 09:52:00,SystemResetWarning,0825.1,5.00,000.00,020.7,019.9,000.0,029.3,022.5,06.9,0000.0,0018.98,0005.23,0002.12
2024-03-11 09:53:00,SystemResetWarning,0825.2,5.00,000.00,020.7,019.9,000.0,029.3,022.5,07.0,0000.0,0017.77,0005.21,0002.11
2024-03-11 09:54:00,SystemResetWarning,0825.2,5.00,000.00,020.7,019.9,000.0,029.3,022.5,06.9,0000.0,0017.36,0005.19,0002.11
2024-03-11 09:55:00,SystemResetWarning,0825.2,4.99,000.00,020.7,019.9,000.0,029.2,022.5,06.9,0000.0,0017.19,0005.18,0002.08
2024-03-11 09:56:00,SystemResetWarning,0825.3,4.99,000.00,020.7,019.9,000.0,029.2,022.5,06.9,0000.0,0016.88,0005.17,0002.08
2024-03-11 09:57:00,SystemResetWarning,0825.2,5.00,000.00,020.7,019.9,000.0,029.2,022.5,06.9,0000.0,0016.63,0005.09,0002.05
2024-03-11 09:58:00,SystemResetWarning,0825.2,5.02,000.00,020.7,019.9,000.0,029.2,022.5,06.9,0000.0,0016.01,0005.00,0002.03
2024-03-11 09:59:00,SystemResetWarning,0825.2,5.00,000.00,020.7,019.9,000.0,029.2,022.5,06.9,0000.0,0015.91,0004.91,0002.03
